Time,TemperatureF,DewpointF,PressureIn,WindDirection,WindDirectionDegrees,WindSpeedMPH,WindSpeedGustMPH,Humidity,HourlyPrecipIn,Conditions,Clouds,dailyrainin,SoftwareType,DateUTC
2013-02-12 00:00:00,36.0,36.0,29.58,West,270,1.6,2.6,100,0.00,,,0.00,Rainwise IP-100,2013-02-12 05:00:00,
2013-02-12 00:05:00,35.8,36.0,29.57,West,270,1.4,3.7,100,0.00,,,0.00,Rainwise IP-100,2013-02-12 05:05:00,
2013-02-12 00:10:00,35.8,36.0,29.57,West,270,2.1,4.0,100,0.00,,,0.00,Rainwise IP-100,2013-02-12 05:10:00,
2013-02-12 00:15:00,35.9,36.0,29.56,West,270,3.5,6.3,100,0.00,,,0.00,Rainwise IP-100,2013-02-12 05:15:00,
2013-02-12 00:16:00,36.0,36.0,29.56,WSW,247,1.9,5.6,100,0.00,,,0.00,Rainwise IP-100,2013-02-12 05:16:00,
2013-02-12 00:21:00,36.0,36.0,29.56,WSW,247,0.0,4.2,100,0.00,,,0.00,Rainwise IP-100,2013-02-12 05:21:00,
2013-02-12 00:26:00,35.7,36.0,29.56,WSW,247,1.4,6.1,100,0.00,,,0.00,Rainwise IP-100,2013-02-12 05:26:00,
2013-02-12 00:31:00,35.6,36.0,29.56,West,270,4.0,4.0,100,0.00,,,0.00,Rainwise IP-100,2013-02-12 05:31:00,
2013-02-12 00:36:00,35.6,36.0,29.55,WNW,292,3.3,6.1,100,0.00,,,0.00,Rainwise IP-100,2013-02-12 05:36:00,
2013-02-12 00:41:00,35.5,36.0,29.55,SW,225,1.2,5.8,100,0.06,,,0.01,Rainwise IP-100,2013-02-12 05:41:00,
2013-02-12 00:46:00,35.3,35.0,29.54,WNW,292,3.3,7.5,100,0.06,,,0.01,Rainwise IP-100,2013-02-12 05:46:00,
2013-02-12 00:51:00,35.2,35.0,29.54,WNW,292,2.1,7.7,100,0.00,,,0.01,Rainwise IP-100,2013-02-12 05:51:00,
2013-02-12 00:56:00,35.0,35.0,29.54,WNW,292,3.3,5.1,100,0.00,,,0.01,Rainwise IP-100,2013-02-12 05:56:00,
2013-02-12 01:01:00,34.8,35.0,29.54,SSW,202,0.0,3.7,100,0.00,,,0.01,Rainwise IP-100,2013-02-12 06:01:00,
2013-02-12 01:06:00,34.7,35.0,29.54,WNW,292,1.2,0.0,100,0.00,,,0.01,Rainwise IP-100,2013-02-12 06:06:00,
2013-02-12 01:11:00,34.6,35.0,29.54,SW,225,0.0,2.1,100,0.00,,,0.01,Rainwise IP-100,2013-02-12 06:11:00,
2013-02-12 01:16:00,34.6,35.0,29.54,SW,225,0.0,0.0,100,0.00,,,0.01,Rainwise IP-100,2013-02-12 06:16:00,
2013-02-12 01:21:00,34.5,35.0,29.54,SSW,202,0.0,1.2,100,0.00,,,0.01,Rainwise IP-100,2013-02-12 06:21:00,
2013-02-12 01:26:00,34.3,35.0,29.54,WNW,292,2.1,2.3,100,0.00,,,0.01,Rainwise IP-100,2013-02-12 06:26:00,
2013-02-12 01:31:00,34.2,35.0,29.54,SSW,202,0.0,3.5,100,0.00,,,0.01,Rainwise IP-100,2013-02-12 06:31:00,
2013-02-12 01:36:00,34.0,35.0,29.54,SSW,202,0.0,1.4,100,0.00,,,0.01,Rainwise IP-100,2013-02-12 06:36:00,
2013-02-12 01:41:00,33.9,35.0,29.54,WNW,292,0.0,1.6,100,0.00,,,0.01,Rainwise IP-100,2013-02-12 06:41:00,
2013-02-12 01:46:00,33.8,35.0,29.54,WNW,292,2.1,2.8,100,0.00,,,0.01,Rainwise IP-100,2013-02-12 06:46:00,
2013-02-12 01:51:00,33.8,35.0,29.54,SSW,202,0.0,2.8,100,0.00,,,0.01,Rainwise IP-100,2013-02-12 06:51:00,
2013-02-12 01:52:00,33.8,35.0,29.54,SSW,202,0.0,2.6,100,0.00,,,0.01,Rainwise IP-100,2013-02-12 06:52:00,
2013-02-12 01:57:00,33.7,35.0,29.54,WNW,292,1.4,1.9,100,0.00,,,0.01,Rainwise IP-100,2013-02-12 06:57:00,
2013-02-12 01:58:00,33.7,35.0,29.54,WNW,292,0.0,1.9,100,0.00,,,0.01,Rainwise IP-100,2013-02-12 06:58:00,
2013-02-12 02:03:00,33.7,35.0,29.53,WNW,292,2.8,5.6,100,0.00,,,0.01,Rainwise IP-100,2013-02-12 07:03:00,
2013-02-12 02:08:00,33.6,35.0,29.52,WSW,247,2.1,3.7,100,0.00,,,0.01,Rainwise IP-100,2013-02-12 07:08:00,
2013-02-12 02:13:00,33.5,35.0,29.52,NW,315,0.0,2.1,100,0.06,,,0.02,Rainwise IP-100,2013-02-12 07:13:00,
2013-02-12 02:18:00,33.4,33.0,29.52,SSW,202,0.0,1.9,100,0.06,,,0.02,Rainwise IP-100,2013-02-12 07:18:00,
2013-02-12 02:23:00,33.4,33.0,29.52,WSW,247,1.2,2.1,100,0.00,,,0.02,Rainwise IP-100,2013-02-12 07:23:00,
2013-02-12 02:28:00,33.3,33.0,29.52,WSW,247,0.0,2.3,100,0.00,,,0.02,Rainwise IP-100,2013-02-12 07:28:00,
2013-02-12 02:33:00,33.2,33.0,29.52,WSW,247,0.0,2.1,100,0.00,,,0.02,Rainwise IP-100,2013-02-12 07:33:00,
2013-02-12 02:38:00,33.1,33.0,29.51,NNW,337,1.2,2.8,100,0.00,,,0.02,Rainwise IP-100,2013-02-12 07:38:00,
2013-02-12 02:43:00,33.0,33.0,29.52,WSW,247,0.0,4.0,100,0.00,,,0.02,Rainwise IP-100,2013-02-12 07:43:00,
2013-02-12 02:48:00,32.9,33.0,29.51,WSW,247,0.0,2.6,100,0.00,,,0.02,Rainwise IP-100,2013-02-12 07:48:00,
2013-02-12 02:53:00,32.8,33.0,29.51,West,270,3.5,3.5,100,0.00,,,0.02,Rainwise IP-100,2013-02-12 07:53:00,
2013-02-12 02:58:00,32.7,33.0,29.51,WNW,292,4.0,6.5,100,0.00,,,0.02,Rainwise IP-100,2013-02-12 07:58:00,
2013-02-12 03:03:00,32.6,33.0,29.51,NW,315,4.2,8.4,100,0.00,,,0.02,Rainwise IP-100,2013-02-12 08:03:00,
2013-02-12 03:08:00,32.6,33.0,29.51,WNW,292,2.8,5.8,100,0.00,,,0.02,Rainwise IP-100,2013-02-12 08:08:00,
2013-02-12 03:13:00,32.5,33.0,29.51,SSW,202,0.0,5.1,100,0.00,,,0.02,Rainwise IP-100,2013-02-12 08:13:00,
2013-02-12 03:18:00,32.5,33.0,29.51,NW,315,1.6,3.3,100,0.00,,,0.02,Rainwise IP-100,2013-02-12 08:18:00,
2013-02-12 03:23:00,32.5,33.0,29.51,WNW,292,2.1,4.2,100,0.00,,,0.02,Rainwise IP-100,2013-02-12 08:23:00,
2013-02-12 03:28:00,32.4,32.0,29.50,NW,315,0.0,5.1,100,0.00,,,0.02,Rainwise IP-100,2013-02-12 08:28:00,
2013-02-12 03:33:00,32.4,32.0,29.50,West,270,0.0,3.3,100,0.00,,,0.02,Rainwise IP-100,2013-02-12 08:33:00,
2013-02-12 03:38:00,32.4,32.0,29.51,WSW,247,1.9,2.6,100,0.00,,,0.02,Rainwise IP-100,2013-02-12 08:38:00,
2013-02-12 03:43:00,32.4,32.0,29.50,WSW,247,0.0,2.6,100,0.00,,,0.02,Rainwise IP-100,2013-02-12 08:43:00,
2013-02-12 03:48:00,32.3,32.0,29.50,NW,315,2.3,3.0,100,0.00,,,0.02,Rainwise IP-100,2013-02-12 08:48:00,
2013-02-12 03:53:00,32.3,32.0,29.50,WSW,247,0.0,5.1,100,0.00,,,0.02,Rainwise IP-100,2013-02-12 08:53:00,
2013-02-12 03:58:00,32.3,32.0,29.50,West,270,1.2,4.7,100,0.00,,,0.02,Rainwise IP-100,2013-02-12 08:58:00,
2013-02-12 04:03:00,32.2,32.0,29.49,NW,315,1.4,3.7,100,0.00,,,0.02,Rainwise IP-100,2013-02-12 09:03:00,
2013-02-12 04:08:00,32.2,32.0,29.49,WSW,247,1.4,3.5,100,0.00,,,0.02,Rainwise IP-100,2013-02-12 09:08:00,
2013-02-12 04:13:00,32.2,32.0,29.49,West,270,0.0,2.6,100,0.00,,,0.02,Rainwise IP-100,2013-02-12 09:13:00,
2013-02-12 04:18:00,32.2,32.0,29.49,SW,225,1.6,0.0,100,0.00,,,0.02,Rainwise IP-100,2013-02-12 09:18:00,
2013-02-12 04:23:00,32.2,32.0,29.49,SSW,202,0.0,2.1,100,0.00,,,0.02,Rainwise IP-100,2013-02-12 09:23:00,
2013-02-12 04:28:00,32.1,32.0,29.50,WNW,292,1.6,0.0,100,0.00,,,0.02,Rainwise IP-100,2013-02-12 09:28:00,
2013-02-12 04:33:00,32.1,32.0,29.50,WSW,247,0.0,2.3,100,0.00,,,0.02,Rainwise IP-100,2013-02-12 09:33:00,
2013-02-12 04:38:00,32.0,32.0,29.49,WNW,292,1.2,3.3,100,0.00,,,0.02,Rainwise IP-100,2013-02-12 09:38:00,
2013-02-12 04:43:00,32.0,32.0,29.49,West,270,2.8,4.7,100,0.00,,,0.02,Rainwise IP-100,2013-02-12 09:43:00,
2013-02-12 04:48:00,32.0,32.0,29.49,WNW,292,3.7,7.7,100,0.00,,,0.02,Rainwise IP-100,2013-02-12 09:48:00,
2013-02-12 04:53:00,32.0,32.0,29.50,West,270,2.6,7.9,100,0.00,,,0.02,Rainwise IP-100,2013-02-12 09:53:00,
2013-02-12 04:58:00,32.0,32.0,29.50,NW,315,3.7,7.2,100,0.00,,,0.02,Rainwise IP-100,2013-02-12 09:58:00,
2013-02-12 05:03:00,32.1,32.0,29.50,West,270,3.0,7.9,100,0.00,,,0.02,Rainwise IP-100,2013-02-12 10:03:00,
2013-02-12 05:08:00,32.1,32.0,29.51,WSW,247,0.0,6.8,100,0.00,,,0.02,Rainwise IP-100,2013-02-12 10:08:00,
2013-02-12 05:13:00,32.1,32.0,29.51,WNW,292,1.6,5.1,100,0.00,,,0.02,Rainwise IP-100,2013-02-12 10:13:00,
2013-02-12 05:18:00,32.1,32.0,29.51,WSW,247,0.0,4.7,100,0.00,,,0.02,Rainwise IP-100,2013-02-12 10:18:00,
2013-02-12 05:23:00,32.0,32.0,29.52,WSW,247,0.0,1.6,100,0.00,,,0.02,Rainwise IP-100,2013-02-12 10:23:00,
2013-02-12 05:28:00,32.0,32.0,29.52,WNW,292,1.2,4.2,100,0.00,,,0.02,Rainwise IP-100,2013-02-12 10:28:00,
2013-02-12 05:33:00,32.0,32.0,29.51,SW,225,0.0,3.0,100,0.00,,,0.02,Rainwise IP-100,2013-02-12 10:33:00,
2013-02-12 05:38:00,32.0,32.0,29.51,NW,315,4.4,8.4,100,0.00,,,0.02,Rainwise IP-100,2013-02-12 10:38:00,
2013-02-12 05:43:00,32.0,32.0,29.51,WNW,292,4.7,9.8,100,0.00,,,0.02,Rainwise IP-100,2013-02-12 10:43:00,
2013-02-12 05:48:00,32.1,32.0,29.51,NW,315,1.6,9.3,100,0.00,,,0.02,Rainwise IP-100,2013-02-12 10:48:00,
2013-02-12 05:53:00,32.2,32.0,29.51,North,360,2.8,7.5,100,0.00,,,0.02,Rainwise IP-100,2013-02-12 10:53:00,
2013-02-12 05:58:00,32.2,32.0,29.51,WNW,292,3.3,7.9,100,0.00,,,0.02,Rainwise IP-100,2013-02-12 10:58:00,
2013-02-12 06:03:00,32.2,32.0,29.51,NW,315,3.5,6.5,100,0.00,,,0.02,Rainwise IP-100,2013-02-12 11:03:00,
2013-02-12 06:08:00,32.2,32.0,29.51,WNW,292,6.3,11.0,100,0.00,,,0.02,Rainwise IP-100,2013-02-12 11:08:00,
2013-02-12 06:13:00,32.3,32.0,29.51,NNW,337,4.7,8.2,100,0.00,,,0.02,Rainwise IP-100,2013-02-12 11:13:00,
2013-02-12 06:18:00,32.3,32.0,29.51,West,270,3.0,7.0,100,0.00,,,0.02,Rainwise IP-100,2013-02-12 11:18:00,
2013-02-12 06:23:00,32.3,32.0,29.50,WNW,292,2.3,7.7,100,0.00,,,0.02,Rainwise IP-100,2013-02-12 11:23:00,
2013-02-12 06:28:00,32.4,32.0,29.50,NNW,337,2.8,7.9,100,0.00,,,0.02,Rainwise IP-100,2013-02-12 11:28:00,
2013-02-12 06:33:00,32.4,32.0,29.51,NW,315,3.7,7.9,100,0.00,,,0.02,Rainwise IP-100,2013-02-12 11:33:00,
2013-02-12 06:38:00,32.4,32.0,29.50,WNW,292,2.8,7.5,100,0.00,,,0.02,Rainwise IP-100,2013-02-12 11:38:00,
2013-02-12 06:43:00,32.4,32.0,29.51,West,270,2.6,6.1,100,0.00,,,0.02,Rainwise IP-100,2013-02-12 11:43:00,
2013-02-12 06:48:00,32.4,32.0,29.51,WNW,292,2.1,7.9,100,0.00,,,0.02,Rainwise IP-100,2013-02-12 11:48:00,
2013-02-12 06:53:00,32.3,32.0,29.51,WNW,292,3.0,8.6,100,0.00,,,0.02,Rainwise IP-100,2013-02-12 11:53:00,
2013-02-12 06:58:00,32.3,32.0,29.51,WSW,247,3.0,9.1,100,0.00,,,0.02,Rainwise IP-100,2013-02-12 11:58:00,
2013-02-12 07:03:00,32.3,32.0,29.51,WNW,292,0.0,9.1,100,0.00,,,0.03,Rainwise IP-100,2013-02-12 12:03:00,
2013-02-12 07:08:00,32.2,32.0,29.52,WNW,292,1.2,3.7,100,0.06,,,0.03,Rainwise IP-100,2013-02-12 12:08:00,
2013-02-12 07:13:00,32.1,32.0,29.51,WNW,292,1.6,2.1,100,0.06,,,0.03,Rainwise IP-100,2013-02-12 12:13:00,
2013-02-12 07:18:00,32.0,32.0,29.52,North,360,0.0,9.8,100,0.00,,,0.03,Rainwise IP-100,2013-02-12 12:18:00,
2013-02-12 07:23:00,32.0,32.0,29.52,WNW,292,1.2,6.1,100,0.00,,,0.03,Rainwise IP-100,2013-02-12 12:23:00,
2013-02-12 07:28:00,32.0,32.0,29.51,WSW,247,2.1,4.0,100,0.00,,,0.03,Rainwise IP-100,2013-02-12 12:28:00,
2013-02-12 07:33:00,32.0,32.0,29.52,West,270,1.6,3.5,100,0.00,,,0.03,Rainwise IP-100,2013-02-12 12:33:00,
2013-02-12 07:38:00,32.0,32.0,29.52,WSW,247,0.0,3.7,100,0.00,,,0.03,Rainwise IP-100,2013-02-12 12:38:00,
2013-02-12 07:43:00,32.0,32.0,29.53,West,270,2.3,5.8,100,0.00,,,0.03,Rainwise IP-100,2013-02-12 12:43:00,
2013-02-12 07:48:00,32.0,32.0,29.53,WSW,247,0.0,3.0,100,0.00,,,0.03,Rainwise IP-100,2013-02-12 12:48:00,
2013-02-12 07:53:00,32.0,32.0,29.53,WNW,292,3.0,3.0,100,0.00,,,0.03,Rainwise IP-100,2013-02-12 12:53:00,
2013-02-12 07:58:00,32.0,32.0,29.53,WSW,247,0.0,3.0,100,0.00,,,0.03,Rainwise IP-100,2013-02-12 12:58:00,
2013-02-12 08:03:00,32.1,32.0,29.54,West,270,0.0,5.1,100,0.00,,,0.03,Rainwise IP-100,2013-02-12 13:03:00,
2013-02-12 08:08:00,32.1,32.0,29.54,WSW,247,0.0,3.3,100,0.00,,,0.03,Rainwise IP-100,2013-02-12 13:08:00,
2013-02-12 08:13:00,32.0,32.0,29.53,WNW,292,3.0,4.4,100,0.00,,,0.03,Rainwise IP-100,2013-02-12 13:13:00,
2013-02-12 08:18:00,32.0,32.0,29.53,West,270,2.8,4.2,100,0.00,,,0.03,Rainwise IP-100,2013-02-12 13:18:00,
2013-02-12 08:23:00,32.0,32.0,29.53,WSW,247,0.0,6.3,100,0.00,,,0.03,Rainwise IP-100,2013-02-12 13:23:00,
2013-02-12 08:28:00,32.1,32.0,29.53,WNW,292,0.0,3.0,100,0.00,,,0.03,Rainwise IP-100,2013-02-12 13:28:00,
2013-02-12 08:33:00,32.5,33.0,29.53,SW,225,1.2,6.1,100,0.00,,,0.03,Rainwise IP-100,2013-02-12 13:33:00,
2013-02-12 08:38:00,33.1,33.0,29.53,West,270,1.2,7.0,100,0.06,,,0.04,Rainwise IP-100,2013-02-12 13:38:00,
2013-02-12 08:43:00,33.6,35.0,29.53,NW,315,1.6,6.3,100,0.06,,,0.04,Rainwise IP-100,2013-02-12 13:43:00,
2013-02-12 08:48:00,33.9,35.0,29.54,SW,225,0.0,5.6,100,0.00,,,0.04,Rainwise IP-100,2013-02-12 13:48:00,
2013-02-12 08:53:00,34.4,35.0,29.54,WSW,247,2.1,5.4,100,0.00,,,0.04,Rainwise IP-100,2013-02-12 13:53:00,
2013-02-12 08:58:00,34.8,35.0,29.54,WSW,247,2.3,5.8,100,0.00,,,0.04,Rainwise IP-100,2013-02-12 13:58:00,
2013-02-12 09:03:00,35.0,35.0,29.53,WNW,292,3.3,7.7,100,0.00,,,0.04,Rainwise IP-100,2013-02-12 14:03:00,
2013-02-12 09:08:00,35.3,35.0,29.53,SSE,157,1.2,3.7,100,0.00,,,0.04,Rainwise IP-100,2013-02-12 14:08:00,
2013-02-12 09:13:00,35.7,36.0,29.54,NE,45,1.2,4.2,100,0.00,,,0.04,Rainwise IP-100,2013-02-12 14:13:00,
2013-02-12 09:18:00,36.1,36.0,29.54,WSW,247,1.6,3.3,100,0.00,,,0.04,Rainwise IP-100,2013-02-12 14:18:00,
2013-02-12 09:23:00,36.3,36.0,29.54,SSE,157,1.2,4.7,100,0.00,,,0.04,Rainwise IP-100,2013-02-12 14:23:00,
2013-02-12 09:28:00,36.3,36.0,29.54,WNW,292,3.0,6.3,100,0.00,,,0.04,Rainwise IP-100,2013-02-12 14:28:00,
2013-02-12 09:33:00,36.3,36.0,29.54,NW,315,3.0,4.0,99,0.00,,,0.04,Rainwise IP-100,2013-02-12 14:33:00,
2013-02-12 09:38:00,36.3,36.0,29.54,WSW,247,0.0,7.5,99,0.00,,,0.05,Rainwise IP-100,2013-02-12 14:38:00,
2013-02-12 09:43:00,36.3,36.0,29.55,WNW,292,0.0,4.7,99,0.06,,,0.05,Rainwise IP-100,2013-02-12 14:43:00,
2013-02-12 09:48:00,36.4,36.0,29.54,WNW,292,1.4,3.7,99,0.06,,,0.05,Rainwise IP-100,2013-02-12 14:48:00,
2013-02-12 09:53:00,36.3,36.0,29.54,WSW,247,1.9,3.0,99,0.00,,,0.05,Rainwise IP-100,2013-02-12 14:53:00,
2013-02-12 09:58:00,36.3,36.0,29.54,WSW,247,1.2,3.5,99,0.00,,,0.05,Rainwise IP-100,2013-02-12 14:58:00,
2013-02-12 10:03:00,36.1,36.0,29.55,West,270,1.9,3.5,98,0.00,,,0.05,Rainwise IP-100,2013-02-12 15:03:00,
2013-02-12 10:08:00,35.8,36.0,29.55,SW,225,0.0,3.0,98,0.00,,,0.05,Rainwise IP-100,2013-02-12 15:08:00,
2013-02-12 10:13:00,35.9,36.0,29.55,WSW,247,0.0,2.1,99,0.00,,,0.05,Rainwise IP-100,2013-02-12 15:13:00,
2013-02-12 10:18:00,35.8,36.0,29.55,NNW,337,1.4,4.4,99,0.00,,,0.05,Rainwise IP-100,2013-02-12 15:18:00,
2013-02-12 10:23:00,35.9,36.0,29.55,WSW,247,4.9,4.9,99,0.00,,,0.05,Rainwise IP-100,2013-02-12 15:23:00,
2013-02-12 10:28:00,35.9,36.0,29.55,SSW,202,1.2,5.4,98,0.00,,,0.05,Rainwise IP-100,2013-02-12 15:28:00,
2013-02-12 10:33:00,35.9,36.0,29.55,WSW,247,1.4,3.0,98,0.00,,,0.05,Rainwise IP-100,2013-02-12 15:33:00,
2013-02-12 10:38:00,35.8,35.0,29.55,WNW,292,0.0,4.4,97,0.00,,,0.05,Rainwise IP-100,2013-02-12 15:38:00,
2013-02-12 10:43:00,35.8,35.0,29.54,SSW,202,1.6,2.8,97,0.00,,,0.05,Rainwise IP-100,2013-02-12 15:43:00,
2013-02-12 10:48:00,35.9,35.0,29.55,SSW,202,1.9,3.0,96,0.00,,,0.05,Rainwise IP-100,2013-02-12 15:48:00,
2013-02-12 10:53:00,36.0,35.0,29.54,WNW,292,1.6,3.5,96,0.00,,,0.05,Rainwise IP-100,2013-02-12 15:53:00,
2013-02-12 10:58:00,36.1,35.0,29.55,WNW,292,1.9,2.3,96,0.00,,,0.05,Rainwise IP-100,2013-02-12 15:58:00,
2013-02-12 11:03:00,36.3,35.0,29.55,WNW,292,1.2,3.0,95,0.00,,,0.05,Rainwise IP-100,2013-02-12 16:03:00,
2013-02-12 11:08:00,36.4,35.0,29.55,WNW,292,1.6,2.3,95,0.00,,,0.05,Rainwise IP-100,2013-02-12 16:08:00,
2013-02-12 11:13:00,36.5,36.0,29.55,WSW,247,3.0,3.0,95,0.00,,,0.05,Rainwise IP-100,2013-02-12 16:13:00,
2013-02-12 11:18:00,36.5,36.0,29.54,WNW,292,4.2,5.4,94,0.00,,,0.05,Rainwise IP-100,2013-02-12 16:18:00,
2013-02-12 11:23:00,36.5,36.0,29.54,WSW,247,5.6,9.3,94,0.00,,,0.05,Rainwise IP-100,2013-02-12 16:23:00,
2013-02-12 11:28:00,36.6,36.0,29.55,WNW,292,2.6,7.9,94,0.00,,,0.05,Rainwise IP-100,2013-02-12 16:28:00,
2013-02-12 11:33:00,36.7,36.0,29.55,WNW,292,0.0,5.8,94,0.00,,,0.05,Rainwise IP-100,2013-02-12 16:33:00,
2013-02-12 11:38:00,36.8,35.0,29.54,WNW,292,2.3,3.7,93,0.00,,,0.05,Rainwise IP-100,2013-02-12 16:38:00,
2013-02-12 11:43:00,36.9,35.0,29.54,West,270,3.0,4.9,93,0.00,,,0.05,Rainwise IP-100,2013-02-12 16:43:00,
2013-02-12 11:48:00,36.7,35.0,29.54,West,270,1.9,4.4,91,0.00,,,0.05,Rainwise IP-100,2013-02-12 16:48:00,
2013-02-12 11:53:00,36.6,35.0,29.54,WSW,247,2.8,5.6,90,0.00,,,0.05,Rainwise IP-100,2013-02-12 16:53:00,
2013-02-12 11:58:00,36.7,35.0,29.54,WSW,247,3.3,9.8,90,0.00,,,0.05,Rainwise IP-100,2013-02-12 16:58:00,
2013-02-12 12:03:00,37.1,35.0,29.54,WNW,292,2.6,5.4,89,0.00,,,0.05,Rainwise IP-100,2013-02-12 17:03:00,
2013-02-12 12:08:00,37.3,33.0,29.54,West,270,2.6,6.3,88,0.00,,,0.05,Rainwise IP-100,2013-02-12 17:08:00,
2013-02-12 12:13:00,37.2,33.0,29.54,NNW,337,3.5,6.1,88,0.00,,,0.05,Rainwise IP-100,2013-02-12 17:13:00,
2013-02-12 12:18:00,36.9,33.0,29.54,WSW,247,1.2,12.4,88,0.00,,,0.05,Rainwise IP-100,2013-02-12 17:18:00,
2013-02-12 12:23:00,36.8,33.0,29.54,SW,225,2.3,9.3,88,0.00,,,0.05,Rainwise IP-100,2013-02-12 17:23:00,
2013-02-12 12:28:00,36.9,33.0,29.54,West,270,3.5,12.4,88,0.00,,,0.05,Rainwise IP-100,2013-02-12 17:28:00,
2013-02-12 12:33:00,37.1,33.0,29.54,WNW,292,0.0,8.4,87,0.00,,,0.05,Rainwise IP-100,2013-02-12 17:33:00,
2013-02-12 12:38:00,37.2,33.0,29.54,West,270,0.0,3.5,87,0.00,,,0.05,Rainwise IP-100,2013-02-12 17:38:00,
2013-02-12 12:43:00,37.3,33.0,29.54,WNW,292,2.8,5.8,87,0.00,,,0.05,Rainwise IP-100,2013-02-12 17:43:00,
2013-02-12 12:48:00,37.6,35.0,29.54,NW,315,2.3,8.2,86,0.00,,,0.05,Rainwise IP-100,2013-02-12 17:48:00,
2013-02-12 12:53:00,37.6,35.0,29.54,WNW,292,2.3,4.9,85,0.00,,,0.05,Rainwise IP-100,2013-02-12 17:53:00,
2013-02-12 12:58:00,37.5,33.0,29.54,WNW,292,1.2,4.7,84,0.00,,,0.05,Rainwise IP-100,2013-02-12 17:58:00,
2013-02-12 13:03:00,37.7,33.0,29.54,WNW,292,5.4,5.4,84,0.00,,,0.05,Rainwise IP-100,2013-02-12 18:03:00,
2013-02-12 13:08:00,37.7,33.0,29.54,SSW,202,1.4,7.7,84,0.00,,,0.05,Rainwise IP-100,2013-02-12 18:08:00,
2013-02-12 13:13:00,37.6,33.0,29.54,NW,315,1.2,6.3,84,0.00,,,0.05,Rainwise IP-100,2013-02-12 18:13:00,
2013-02-12 13:18:00,37.6,33.0,29.55,WNW,292,3.3,7.9,84,0.00,,,0.05,Rainwise IP-100,2013-02-12 18:18:00,
2013-02-12 13:23:00,37.5,33.0,29.55,West,270,0.0,5.4,84,0.00,,,0.05,Rainwise IP-100,2013-02-12 18:23:00,
2013-02-12 13:28:00,37.4,32.0,29.54,WNW,292,3.0,5.1,84,0.00,,,0.05,Rainwise IP-100,2013-02-12 18:28:00,
2013-02-12 13:33:00,37.3,33.0,29.55,West,270,1.4,5.1,85,0.00,,,0.05,Rainwise IP-100,2013-02-12 18:33:00,
2013-02-12 13:38:00,37.3,33.0,29.55,WSW,247,1.6,5.4,85,0.00,,,0.05,Rainwise IP-100,2013-02-12 18:38:00,
2013-02-12 13:43:00,37.3,33.0,29.55,WNW,292,1.4,6.5,85,0.00,,,0.05,Rainwise IP-100,2013-02-12 18:43:00,
2013-02-12 13:49:00,37.4,32.0,29.55,WNW,292,2.3,4.7,84,0.00,,,0.05,Rainwise IP-100,2013-02-12 18:49:00,
2013-02-12 13:54:00,37.4,32.0,29.55,West,270,1.2,5.6,83,0.00,,,0.05,Rainwise IP-100,2013-02-12 18:54:00,
2013-02-12 13:59:00,37.6,33.0,29.55,WNW,292,5.1,5.1,83,0.00,,,0.05,Rainwise IP-100,2013-02-12 18:59:00,
2013-02-12 14:04:00,37.7,33.0,29.55,WSW,247,0.0,5.1,82,0.00,,,0.05,Rainwise IP-100,2013-02-12 19:04:00,
2013-02-12 14:09:00,37.8,33.0,29.55,SSE,157,0.0,4.9,82,0.00,,,0.05,Rainwise IP-100,2013-02-12 19:09:00,
2013-02-12 14:14:00,38.1,33.0,29.55,WSW,247,5.8,5.8,82,0.00,,,0.05,Rainwise IP-100,2013-02-12 19:14:00,
2013-02-12 14:19:00,38.3,33.0,29.56,West,270,0.0,9.3,81,0.00,,,0.05,Rainwise IP-100,2013-02-12 19:19:00,
2013-02-12 14:24:00,38.5,33.0,29.56,WSW,247,1.2,9.1,80,0.00,,,0.05,Rainwise IP-100,2013-02-12 19:24:00,
2013-02-12 14:29:00,38.7,33.0,29.56,WSW,247,1.2,7.2,80,0.00,,,0.05,Rainwise IP-100,2013-02-12 19:29:00,
2013-02-12 14:34:00,38.7,33.0,29.56,NW,315,3.3,5.6,79,0.00,,,0.05,Rainwise IP-100,2013-02-12 19:34:00,
2013-02-12 14:39:00,38.7,33.0,29.56,WNW,292,2.3,4.7,79,0.00,,,0.05,Rainwise IP-100,2013-02-12 19:39:00,
2013-02-12 14:44:00,38.7,33.0,29.57,WSW,247,3.0,7.5,79,0.00,,,0.05,Rainwise IP-100,2013-02-12 19:44:00,
2013-02-12 14:49:00,38.8,33.0,29.56,SSW,202,0.0,4.4,78,0.00,,,0.05,Rainwise IP-100,2013-02-12 19:49:00,
2013-02-12 14:54:00,39.0,33.0,29.57,SE,135,0.0,9.3,78,0.00,,,0.05,Rainwise IP-100,2013-02-12 19:54:00,
2013-02-12 14:59:00,38.9,33.0,29.57,NNW,337,4.7,10.5,79,0.00,,,0.05,Rainwise IP-100,2013-02-12 19:59:00,
2013-02-12 15:04:00,38.8,33.0,29.57,SW,225,2.3,8.6,78,0.00,,,0.05,Rainwise IP-100,2013-02-12 20:04:00,
2013-02-12 15:09:00,38.7,33.0,29.57,WNW,292,4.2,9.6,78,0.00,,,0.05,Rainwise IP-100,2013-02-12 20:09:00,
2013-02-12 15:14:00,38.5,33.0,29.57,WNW,292,2.3,9.8,78,0.00,,,0.05,Rainwise IP-100,2013-02-12 20:14:00,
2013-02-12 15:19:00,38.4,32.0,29.57,WSW,247,1.9,10.5,78,0.00,,,0.05,Rainwise IP-100,2013-02-12 20:19:00,
2013-02-12 15:24:00,38.4,32.0,29.57,NNW,337,1.2,8.4,78,0.00,,,0.05,Rainwise IP-100,2013-02-12 20:24:00,
2013-02-12 15:29:00,38.4,32.0,29.57,NW,315,2.1,7.0,79,0.00,,,0.05,Rainwise IP-100,2013-02-12 20:29:00,
2013-02-12 15:34:00,38.4,32.0,29.57,WNW,292,2.1,6.5,79,0.00,,,0.05,Rainwise IP-100,2013-02-12 20:34:00,
2013-02-12 15:39:00,38.4,32.0,29.57,WNW,292,3.3,8.4,79,0.00,,,0.05,Rainwise IP-100,2013-02-12 20:39:00,
2013-02-12 15:44:00,38.4,32.0,29.57,WNW,292,8.4,8.4,79,0.00,,,0.05,Rainwise IP-100,2013-02-12 20:44:00,
2013-02-12 15:49:00,38.3,32.0,29.57,SSW,202,0.0,8.4,79,0.00,,,0.05,Rainwise IP-100,2013-02-12 20:49:00,
2013-02-12 15:54:00,38.2,32.0,29.57,WNW,292,1.4,7.2,80,0.00,,,0.05,Rainwise IP-100,2013-02-12 20:54:00,
2013-02-12 15:59:00,38.0,32.0,29.57,NW,315,2.1,6.8,80,0.00,,,0.05,Rainwise IP-100,2013-02-12 20:59:00,
2013-02-12 16:04:00,37.8,32.0,29.57,WSW,247,1.9,7.0,80,0.00,,,0.05,Rainwise IP-100,2013-02-12 21:04:00,
2013-02-12 16:09:00,37.7,32.0,29.58,WSW,247,0.0,7.9,80,0.00,,,0.05,Rainwise IP-100,2013-02-12 21:09:00,
2013-02-12 16:14:00,37.6,32.0,29.58,WNW,292,3.0,4.9,80,0.00,,,0.05,Rainwise IP-100,2013-02-12 21:14:00,
2013-02-12 16:19:00,37.4,32.0,29.57,SSW,202,1.2,5.6,81,0.00,,,0.05,Rainwise IP-100,2013-02-12 21:19:00,
2013-02-12 16:24:00,37.4,32.0,29.58,WSW,247,6.5,6.5,81,0.00,,,0.05,Rainwise IP-100,2013-02-12 21:24:00,
2013-02-12 16:29:00,37.2,32.0,29.57,West,270,0.0,6.5,81,0.00,,,0.05,Rainwise IP-100,2013-02-12 21:29:00,
2013-02-12 16:34:00,37.0,32.0,29.58,WNW,292,1.2,2.1,81,0.00,,,0.05,Rainwise IP-100,2013-02-12 21:34:00,
2013-02-12 16:39:00,36.9,32.0,29.58,SSW,202,0.0,4.4,82,0.00,,,0.05,Rainwise IP-100,2013-02-12 21:39:00,
2013-02-12 16:44:00,36.7,32.0,29.58,West,270,3.5,3.5,82,0.00,,,0.05,Rainwise IP-100,2013-02-12 21:44:00,
2013-02-12 16:49:00,36.6,32.0,29.58,West,270,3.3,4.0,83,0.00,,,0.05,Rainwise IP-100,2013-02-12 21:49:00,
2013-02-12 16:54:00,36.4,31.0,29.58,West,270,0.0,5.6,83,0.00,,,0.05,Rainwise IP-100,2013-02-12 21:54:00,
2013-02-12 16:59:00,36.3,31.0,29.58,West,270,1.4,5.6,83,0.00,,,0.05,Rainwise IP-100,2013-02-12 21:59:00,
2013-02-12 17:04:00,36.2,32.0,29.59,West,270,2.6,3.0,84,0.00,,,0.05,Rainwise IP-100,2013-02-12 22:04:00,
2013-02-12 17:09:00,36.2,31.0,29.59,WSW,247,1.4,7.0,83,0.00,,,0.05,Rainwise IP-100,2013-02-12 22:09:00,
2013-02-12 17:14:00,36.4,31.0,29.59,NW,315,1.2,4.7,83,0.00,,,0.05,Rainwise IP-100,2013-02-12 22:14:00,
2013-02-12 17:19:00,36.4,31.0,29.59,NW,315,3.0,3.7,82,0.00,,,0.05,Rainwise IP-100,2013-02-12 22:19:00,
2013-02-12 17:24:00,36.4,31.0,29.59,SSW,202,1.2,3.3,82,0.00,,,0.05,Rainwise IP-100,2013-02-12 22:24:00,
2013-02-12 17:29:00,36.4,31.0,29.59,NNW,337,2.3,8.2,81,0.00,,,0.05,Rainwise IP-100,2013-02-12 22:29:00,
2013-02-12 17:34:00,36.4,31.0,29.60,West,270,2.8,5.1,81,0.00,,,0.05,Rainwise IP-100,2013-02-12 22:34:00,
2013-02-12 17:39:00,36.4,31.0,29.60,WNW,292,3.3,6.3,81,0.00,,,0.05,Rainwise IP-100,2013-02-12 22:39:00,
2013-02-12 17:44:00,36.4,31.0,29.59,WSW,247,1.6,4.0,81,0.00,,,0.05,Rainwise IP-100,2013-02-12 22:44:00,
2013-02-12 17:49:00,36.3,31.0,29.59,SSW,202,0.0,3.5,81,0.00,,,0.05,Rainwise IP-100,2013-02-12 22:49:00,
2013-02-12 17:54:00,35.9,31.0,29.60,West,270,2.6,4.0,82,0.00,,,0.05,Rainwise IP-100,2013-02-12 22:54:00,
2013-02-12 17:59:00,35.8,31.0,29.60,WNW,292,1.4,5.8,82,0.00,,,0.05,Rainwise IP-100,2013-02-12 22:59:00,
2013-02-12 18:04:00,35.9,31.0,29.60,WNW,292,0.0,4.7,82,0.00,,,0.05,Rainwise IP-100,2013-02-12 23:04:00,
2013-02-12 18:09:00,36.0,31.0,29.61,WNW,292,1.2,5.6,82,0.00,,,0.05,Rainwise IP-100,2013-02-12 23:09:00,
2013-02-12 18:14:00,35.9,31.0,29.61,WNW,292,1.6,4.9,82,0.00,,,0.05,Rainwise IP-100,2013-02-12 23:14:00,
2013-02-12 18:19:00,35.9,31.0,29.61,WNW,292,2.6,3.3,82,0.00,,,0.05,Rainwise IP-100,2013-02-12 23:19:00,
2013-02-12 18:24:00,35.8,31.0,29.61,WSW,247,0.0,3.5,82,0.00,,,0.05,Rainwise IP-100,2013-02-12 23:24:00,
2013-02-12 18:29:00,35.8,31.0,29.62,WNW,292,2.1,8.4,82,0.00,,,0.05,Rainwise IP-100,2013-02-12 23:29:00,
2013-02-12 18:34:00,35.8,31.0,29.61,NW,315,1.2,8.4,82,0.00,,,0.05,Rainwise IP-100,2013-02-12 23:34:00,
2013-02-12 18:39:00,35.7,31.0,29.62,WNW,292,1.2,2.6,82,0.00,,,0.05,Rainwise IP-100,2013-02-12 23:39:00,
2013-02-12 18:44:00,35.6,31.0,29.62,NW,315,0.0,3.5,82,0.00,,,0.05,Rainwise IP-100,2013-02-12 23:44:00,
2013-02-12 18:49:00,35.5,31.0,29.62,NW,315,1.2,1.9,83,0.00,,,0.05,Rainwise IP-100,2013-02-12 23:49:00,
2013-02-12 18:54:00,35.4,31.0,29.63,WNW,292,0.0,2.3,83,0.00,,,0.05,Rainwise IP-100,2013-02-12 23:54:00,
2013-02-12 18:59:00,35.2,31.0,29.63,WSW,247,1.2,2.1,83,0.00,,,0.05,Rainwise IP-100,2013-02-12 23:59:00,
2013-02-12 19:04:00,35.2,31.0,29.63,WSW,247,1.2,1.6,84,0.00,,,0.05,Rainwise IP-100,2013-02-13 00:04:00,
2013-02-12 19:09:00,35.1,31.0,29.63,WSW,247,0.0,1.9,84,0.00,,,0.05,Rainwise IP-100,2013-02-13 00:09:00,
2013-02-12 19:14:00,35.0,31.0,29.63,WNW,292,0.0,3.3,84,0.00,,,0.05,Rainwise IP-100,2013-02-13 00:14:00,
2013-02-12 19:19:00,35.0,31.0,29.64,WSW,247,0.0,4.4,84,0.00,,,0.05,Rainwise IP-100,2013-02-13 00:19:00,
2013-02-12 19:24:00,35.0,31.0,29.64,SSE,157,0.0,3.3,83,0.00,,,0.05,Rainwise IP-100,2013-02-13 00:24:00,
2013-02-12 19:29:00,35.1,31.0,29.64,WNW,292,1.4,6.1,83,0.00,,,0.05,Rainwise IP-100,2013-02-13 00:29:00,
2013-02-12 19:34:00,35.1,31.0,29.64,WNW,292,1.9,6.1,83,0.00,,,0.05,Rainwise IP-100,2013-02-13 00:34:00,
2013-02-12 19:39:00,35.2,31.0,29.65,North,360,0.0,4.9,83,0.00,,,0.05,Rainwise IP-100,2013-02-13 00:39:00,
2013-02-12 19:44:00,35.2,31.0,29.65,West,270,0.0,4.0,83,0.00,,,0.05,Rainwise IP-100,2013-02-13 00:44:00,
2013-02-12 19:49:00,35.2,29.0,29.65,WNW,292,0.0,7.0,82,0.00,,,0.05,Rainwise IP-100,2013-02-13 00:49:00,
2013-02-12 19:54:00,35.3,29.0,29.65,SSW,202,2.1,7.0,82,0.00,,,0.05,Rainwise IP-100,2013-02-13 00:54:00,
2013-02-12 19:59:00,35.4,29.0,29.65,WSW,247,4.9,7.5,82,0.00,,,0.05,Rainwise IP-100,2013-02-13 00:59:00,
2013-02-12 20:04:00,35.5,31.0,29.65,WSW,247,0.0,11.0,82,0.00,,,0.05,Rainwise IP-100,2013-02-13 01:04:00,
2013-02-12 20:09:00,35.6,31.0,29.65,NNE,22,1.2,7.5,81,0.00,,,0.05,Rainwise IP-100,2013-02-13 01:09:00,
2013-02-12 20:14:00,35.5,31.0,29.65,WNW,292,4.7,9.8,81,0.00,,,0.05,Rainwise IP-100,2013-02-13 01:14:00,
2013-02-12 20:19:00,35.4,29.0,29.65,WNW,292,2.6,8.6,81,0.00,,,0.05,Rainwise IP-100,2013-02-13 01:19:00,
2013-02-12 20:24:00,35.2,29.0,29.65,WNW,292,3.5,6.5,81,0.00,,,0.05,Rainwise IP-100,2013-02-13 01:24:00,
2013-02-12 20:29:00,35.0,29.0,29.66,West,270,5.1,7.2,82,0.00,,,0.05,Rainwise IP-100,2013-02-13 01:29:00,
2013-02-12 20:34:00,34.9,29.0,29.66,WSW,247,2.6,9.6,82,0.00,,,0.05,Rainwise IP-100,2013-02-13 01:34:00,
2013-02-12 20:39:00,34.7,29.0,29.66,WSW,247,2.3,7.0,82,0.00,,,0.05,Rainwise IP-100,2013-02-13 01:39:00,
2013-02-12 20:44:00,34.6,31.0,29.67,NNW,337,5.4,6.8,83,0.00,,,0.05,Rainwise IP-100,2013-02-13 01:44:00,
2013-02-12 20:49:00,34.5,31.0,29.67,NNW,337,3.7,7.2,83,0.00,,,0.05,Rainwise IP-100,2013-02-13 01:49:00,
2013-02-12 20:54:00,34.5,31.0,29.67,SSW,202,1.6,9.3,83,0.00,,,0.05,Rainwise IP-100,2013-02-13 01:54:00,
2013-02-12 20:59:00,34.4,31.0,29.68,WSW,247,2.3,6.8,83,0.00,,,0.05,Rainwise IP-100,2013-02-13 01:59:00,
2013-02-12 21:04:00,34.4,31.0,29.68,NW,315,0.0,7.9,84,0.00,,,0.05,Rainwise IP-100,2013-02-13 02:04:00,
2013-02-12 21:09:00,34.4,31.0,29.68,WSW,247,1.2,9.3,84,0.00,,,0.05,Rainwise IP-100,2013-02-13 02:09:00,
2013-02-12 21:14:00,34.4,31.0,29.68,WNW,292,3.5,5.8,84,0.00,,,0.05,Rainwise IP-100,2013-02-13 02:14:00,
2013-02-12 21:19:00,34.3,31.0,29.68,WNW,292,3.5,7.5,84,0.00,,,0.05,Rainwise IP-100,2013-02-13 02:19:00,
2013-02-12 21:24:00,34.3,31.0,29.68,WNW,292,3.0,9.6,84,0.00,,,0.05,Rainwise IP-100,2013-02-13 02:24:00,
2013-02-12 21:29:00,34.1,31.0,29.68,West,270,2.1,9.6,84,0.00,,,0.05,Rainwise IP-100,2013-02-13 02:29:00,
2013-02-12 21:34:00,34.1,31.0,29.69,West,270,2.1,10.7,84,0.00,,,0.05,Rainwise IP-100,2013-02-13 02:34:00,
2013-02-12 21:39:00,34.1,31.0,29.69,WSW,247,2.8,7.5,84,0.00,,,0.05,Rainwise IP-100,2013-02-13 02:39:00,
2013-02-12 21:44:00,33.9,31.0,29.69,WNW,292,1.2,6.8,84,0.00,,,0.05,Rainwise IP-100,2013-02-13 02:44:00,
2013-02-12 21:49:00,33.8,31.0,29.69,WNW,292,3.3,5.8,84,0.00,,,0.05,Rainwise IP-100,2013-02-13 02:49:00,
2013-02-12 21:54:00,33.6,31.0,29.70,WNW,292,2.1,10.5,85,0.00,,,0.05,Rainwise IP-100,2013-02-13 02:54:00,
2013-02-12 21:59:00,33.4,29.0,29.69,SE,135,0.0,4.2,85,0.00,,,0.05,Rainwise IP-100,2013-02-13 02:59:00,
2013-02-12 22:04:00,33.0,29.0,29.70,WSW,247,0.0,4.7,86,0.00,,,0.05,Rainwise IP-100,2013-02-13 03:04:00,
2013-02-12 22:09:00,32.8,31.0,29.69,WNW,292,2.1,7.0,87,0.00,,,0.05,Rainwise IP-100,2013-02-13 03:09:00,
2013-02-12 22:14:00,32.7,31.0,29.69,WSW,247,1.9,7.7,87,0.00,,,0.05,Rainwise IP-100,2013-02-13 03:14:00,
2013-02-12 22:19:00,32.9,29.0,29.70,SSW,202,0.0,7.9,86,0.00,,,0.05,Rainwise IP-100,2013-02-13 03:19:00,
2013-02-12 22:24:00,32.8,29.0,29.70,WSW,247,1.4,3.7,86,0.00,,,0.05,Rainwise IP-100,2013-02-13 03:24:00,
2013-02-12 22:29:00,32.7,29.0,29.71,WNW,292,7.0,7.0,86,0.00,,,0.05,Rainwise IP-100,2013-02-13 03:29:00,
2013-02-12 22:34:00,32.6,31.0,29.71,WSW,247,0.0,7.0,87,0.00,,,0.05,Rainwise IP-100,2013-02-13 03:34:00,
2013-02-12 22:39:00,32.6,31.0,29.72,WNW,292,1.9,6.5,87,0.00,,,0.05,Rainwise IP-100,2013-02-13 03:39:00,
2013-02-12 22:44:00,32.6,31.0,29.71,North,360,2.3,4.9,87,0.00,,,0.05,Rainwise IP-100,2013-02-13 03:44:00,
2013-02-12 22:49:00,32.6,29.0,29.72,WNW,292,2.1,5.1,86,0.00,,,0.05,Rainwise IP-100,2013-02-13 03:49:00,
2013-02-12 22:54:00,32.8,29.0,29.71,WNW,292,3.0,5.8,86,0.00,,,0.05,Rainwise IP-100,2013-02-13 03:54:00,
2013-02-12 22:59:00,33.1,29.0,29.72,WNW,292,3.3,8.9,85,0.00,,,0.05,Rainwise IP-100,2013-02-13 03:59:00,
2013-02-12 23:04:00,33.5,31.0,29.72,NNW,337,2.6,7.9,84,0.00,,,0.05,Rainwise IP-100,2013-02-13 04:04:00,
2013-02-12 23:09:00,33.7,31.0,29.73,West,270,2.6,8.2,83,0.00,,,0.05,Rainwise IP-100,2013-02-13 04:09:00,
2013-02-12 23:14:00,33.9,31.0,29.72,ENE,67,2.8,7.9,83,0.00,,,0.05,Rainwise IP-100,2013-02-13 04:14:00,
2013-02-12 23:19:00,34.0,29.0,29.72,West,270,4.0,6.3,82,0.00,,,0.05,Rainwise IP-100,2013-02-13 04:19:00,
2013-02-12 23:24:00,34.1,29.0,29.73,SSE,157,1.2,6.8,82,0.00,,,0.05,Rainwise IP-100,2013-02-13 04:24:00,
2013-02-12 23:29:00,34.0,31.0,29.73,WSW,247,0.0,3.5,83,0.00,,,0.05,Rainwise IP-100,2013-02-13 04:29:00,
2013-02-12 23:34:00,33.8,31.0,29.73,NNW,337,0.0,4.7,83,0.00,,,0.05,Rainwise IP-100,2013-02-13 04:34:00,
2013-02-12 23:39:00,33.8,31.0,29.73,WSW,247,0.0,4.4,84,0.00,,,0.05,Rainwise IP-100,2013-02-13 04:39:00,
2013-02-12 23:44:00,33.7,31.0,29.73,West,270,0.0,2.1,85,0.00,,,0.05,Rainwise IP-100,2013-02-13 04:44:00,
2013-02-12 23:49:00,33.6,31.0,29.73,SW,225,0.0,1.6,85,0.00,,,0.05,Rainwise IP-100,2013-02-13 04:49:00,
2013-02-12 23:54:00,33.5,31.0,29.73,SSW,202,0.0,1.6,85,0.00,,,0.05,Rainwise IP-100,2013-02-13 04:54:00,
2013-02-12 23:59:00,33.4,29.0,29.73,SW,225,0.0,2.1,85,0.00,,,0.05,Rainwise IP-100,2013-02-13 04:59:00,